Oak Harbor, WA

3:09 AM PST on December 04, 2016 (GMT -0800)
Whidbey Island Naval Air Station

Weather History for KNUW - April, 2014

Change the Weather History Date:

Tuesday, April 1, 2014

  Actual Average Record
Temperature  
Mean Temperature 46 °F -  
Max Temperature 55 °F 49 °F 132 °F (1998)
Min Temperature 36 °F 36 °F 28 °F (2008)
Degree Days  
Heating Degree Days 20    
Moisture  
Dew Point 37 °F    
Average Humidity 66    
Maximum Humidity 86    
Minimum Humidity 45    
Precipitation  
Precipitation 0.00 in - - ()
Sea Level Pressure  
Sea Level Pressure 29.84 in    
Wind  
Wind Speed 5 mph (SW)    
Max Wind Speed 21 mph    
Max Gust Speed 25 mph    
Visibility 10 miles    
Events      
Averages and records for this station are not official NWS values.
T = Trace of Precipitation, MM = Missing Value Source: NWS Daily Summary

Daily Weather History Graph

Daily Weather History Graph

Search for Another Location

Airport or City:

Trip Planner

Search our weather history database for the weather conditions in past years. The results will help you decide how hot, cold, wet, or windy it might be!

Date:

Astronomy

Apr. 01, 2014 Rise Set
Actual Time 6:48 AM PDT 7:41 PM PDT
Civil Twilight 6:16 AM PDT 8:13 PM PDT
Nautical Twilight 5:38 AM PDT 8:51 PM PDT
Astronomical Twilight 4:58 AM PDT 9:31 PM PDT
Moon 7:45 AM PDT (4/1) 10:21 PM PDT (4/1)
Length of Visible Light 13h 56m
Length of Day
12h 52m
Waxing Crescent, 5% of the Moon is Illuminated
Apr 1
Waxing Crescent
Apr 7
First Quarter
Apr 15
Full
Apr 22
Last Quarter
Apr 28
New

Hourly Weather History & Observations

Time (PDT) Temp. Windchill Dew Point Humidity Pressure Visibility Wind Dir Wind Speed Gust Speed Precip Events Conditions
12:56 AM 42.1 °F 40.2 °F 35.1 °F 76% 29.77 in 10.0 mi SSW 3.5 mph - N/A   Partly Cloudy
1:56 AM 44.1 °F - 37.9 °F 79% 29.78 in 10.0 mi Calm Calm - N/A   Partly Cloudy
2:56 AM 41.0 °F - 36.0 °F 82% 29.79 in 10.0 mi Calm Calm - N/A   Partly Cloudy
3:56 AM 41.0 °F 39.0 °F 37.0 °F 86% 29.79 in 10.0 mi ESE 3.5 mph - N/A   Partly Cloudy
4:56 AM 36.0 °F 32.1 °F 32.0 °F 86% 29.79 in 10.0 mi SE 4.6 mph - N/A   Partly Cloudy
5:56 AM 37.9 °F 35.5 °F 33.1 °F 83% 29.80 in 7.0 mi SE 3.5 mph - N/A   Scattered Clouds
6:56 AM 37.0 °F 32.4 °F 33.1 °F 86% 29.81 in 10.0 mi SE 5.8 mph - N/A   Mostly Cloudy
7:56 AM 41.0 °F - 37.0 °F 86% 29.82 in 10.0 mi Calm Calm - N/A   Mostly Cloudy
8:56 AM 46.9 °F - 41.0 °F 80% 29.84 in 10.0 mi Calm Calm - N/A   Mostly Cloudy
9:56 AM 50.0 °F - 39.0 °F 66% 29.85 in 10.0 mi West 6.9 mph - N/A   Mostly Cloudy
10:56 AM 52.0 °F - 37.9 °F 59% 29.87 in 10.0 mi West 5.8 mph - N/A   Mostly Cloudy
11:56 AM 54.0 °F - 37.9 °F 55% 29.87 in 10.0 mi West 6.9 mph - N/A   Mostly Cloudy
12:56 PM 54.0 °F - 36.0 °F 51% 29.87 in 10.0 mi West 8.1 mph - N/A   Scattered Clouds
1:56 PM 55.0 °F - 39.0 °F 55% 29.87 in 10.0 mi WSW 10.4 mph - N/A   Scattered Clouds
2:56 PM 55.0 °F - 37.9 °F 53% 29.87 in 10.0 mi West 9.2 mph - N/A   Scattered Clouds
3:56 PM 55.9 °F - 37.9 °F 51% 29.86 in 10.0 mi WSW 8.1 mph - N/A   Scattered Clouds
4:56 PM 55.9 °F - 35.1 °F 45% 29.86 in 10.0 mi WSW 9.2 mph - N/A   Scattered Clouds
5:56 PM 55.0 °F - 34.0 °F 45% 29.86 in 10.0 mi WSW 6.9 mph - N/A   Scattered Clouds
6:56 PM 54.0 °F - 33.1 °F 45% 29.86 in 10.0 mi West 4.6 mph - N/A   Scattered Clouds
7:56 PM 48.9 °F - 37.0 °F 64% 29.87 in 10.0 mi WSW 6.9 mph - N/A   Scattered Clouds
8:56 PM 53.1 °F - 39.9 °F 61% 29.88 in 10.0 mi SW 8.1 mph - N/A   Scattered Clouds
9:56 PM 53.1 °F - 42.1 °F 66% 29.89 in 10.0 mi SW 13.8 mph - N/A   Scattered Clouds
10:56 PM 52.0 °F - 41.0 °F 66% 29.90 in 10.0 mi Calm Calm - N/A   Mostly Cloudy
11:56 PM 53.1 °F - 39.0 °F 59% 29.90 in 10.0 mi West 20.7 mph 25.3 mph N/A   Mostly Cloudy